contact:dominique.lefevre@mio.osupytheas.fr, maurice.libes@osupytheas.fr, didier.mallarino@osupytheas.fr
Project:EMSO http://www.emso-fr.org/EMSO-France
Depth: 2436.0 m
Title:EMSO Ligure Ouest : Data MII capteur AQUADOPP
Date,Latitude,Longitude,X_East,Y_North,Z_Up,Amplitude_X,Amplitude_Y,Amplitude_Z,Batterie,SoundSpeed,Heading,Pitch,Roll,Pressure,TIS,Speed,Direction
, degrees North, degrees East, m.s-1, m.s-1,m.s-1, 1, 1, 1, Volt, m.s-1, degree, degree, degree, dbar, degree_C, m.s-1, degree
2021-03-25T00:04:03,42.805,6.029,-0.004,-0.001,0.009,109.0,109.0,106.0,13.4,1505.2,327.1,-0.8,1.8,2470.459,13.28,0.004,256.0
2021-03-25T00:07:03,42.805,6.029,-0.034,-0.001,0.017,108.0,108.0,106.0,13.3,1505.2,327.2,-0.8,1.8,2470.469,13.28,0.034,268.3
2021-03-25T00:10:03,42.805,6.029,-0.028,-0.021,0.003,108.0,107.0,105.0,13.4,1505.2,327.5,-0.8,1.9,2470.467,13.28,0.035,233.1
2021-03-25T00:13:03,42.805,6.029,-0.021,0.011,0.011,109.0,109.0,104.0,13.4,1505.2,326.7,-0.8,1.8,2470.5,13.29,0.023,297.6
2021-03-25T00:16:03,42.805,6.029,-0.011,-0.007,-0.04,109.0,107.0,105.0,13.3,1505.2,327.8,-0.7,1.8,2470.464,13.29,0.013,237.5
2021-03-25T00:19:03,42.805,6.029,-0.022,-0.01,0.006,109.0,107.0,104.0,13.3,1505.2,327.3,-0.8,1.8,2470.484,13.29,0.024,245.6
2021-03-25T00:22:03,42.805,6.029,-0.031,-0.009,0.003,107.0,108.0,105.0,13.4,1505.2,327.3,-0.7,1.8,2470.466,13.29,0.032,253.8
2021-03-25T00:25:03,42.805,6.029,-0.023,-0.011,-0.002,107.0,106.0,104.0,13.4,1505.2,327.4,-0.7,1.8,2470.461,13.29,0.025,244.4
2021-03-25T00:28:03,42.805,6.029,-0.035,0.002,-0.016,107.0,108.0,105.0,13.3,1505.2,327.2,-0.7,1.8,2470.461,13.29,0.035,273.3
2021-03-25T00:31:03,42.805,6.029,-0.017,-0.006,0.007,109.0,109.0,105.0,13.4,1505.2,327.1,-0.8,1.8,2470.462,13.29,0.018,250.6
2021-03-25T00:34:03,42.805,6.029,-0.029,0.0,-0.008,109.0,107.0,106.0,13.4,1505.2,327.1,-0.7,1.8,2470.416,13.29,0.028,270.0
2021-03-25T00:37:03,42.805,6.029,-0.038,-0.017,-0.007,108.0,108.0,105.0,13.4,1505.2,326.8,-0.8,1.8,2470.456,13.29,0.041,245.9
2021-03-25T00:40:03,42.805,6.029,-0.01,-0.016,-0.02,108.0,109.0,104.0,13.4,1505.2,327.6,-0.8,1.8,2470.458,13.29,0.018,212.0
2021-03-25T00:43:03,42.805,6.029,-0.04,-0.003,-0.022,107.0,109.0,104.0,13.3,1505.2,327.2,-0.8,1.8,2470.435,13.29,0.04,265.7
2021-03-25T00:46:03,42.805,6.029,-0.028,0.005,-0.006,107.0,109.0,105.0,13.3,1505.2,327.8,-0.8,1.8,2470.466,13.29,0.028,280.1
2021-03-25T00:49:03,42.805,6.029,-0.01,0.004,0.008,109.0,108.0,104.0,13.3,1505.2,327.6,-0.7,1.8,2470.468,13.29,0.01,291.8
2021-03-25T00:52:03,42.805,6.029,-0.035,0.007,0.014,109.0,108.0,106.0,13.4,1505.2,327.3,-0.8,1.8,2470.471,13.29,0.035,281.3
2021-03-25T00:55:03,42.805,6.029,-0.039,-0.017,0.006,109.0,108.0,104.0,13.4,1505.2,327.7,-0.8,1.8,2470.464,13.29,0.042,246.5
2021-03-25T00:58:03,42.805,6.029,-0.024,0.0,-0.001,110.0,109.0,105.0,13.4,1505.2,327.7,-0.8,1.8,2470.464,13.29,0.024,270.0
2021-03-25T01:04:03,42.805,6.029,-0.011,-0.003,-0.008,110.0,110.0,108.0,13.3,1505.2,327.2,-0.7,1.8,2470.459,13.28,0.011,254.7
2021-03-25T01:07:03,42.805,6.029,-0.014,-0.01,0.01,110.0,109.0,107.0,13.4,1505.2,326.9,-0.8,1.8,2470.469,13.28,0.017,234.5
2021-03-25T01:10:03,42.805,6.029,-0.013,-0.019,0.0,111.0,108.0,106.0,13.3,1505.2,327.5,-0.7,1.8,2470.455,13.28,0.023,214.4
2021-03-25T01:13:03,42.805,6.029,-0.015,-0.018,0.012,108.0,110.0,107.0,13.4,1505.2,327.8,-0.7,1.8,2470.445,13.28,0.023,219.8
2021-03-25T01:16:03,42.805,6.029,-0.025,-0.001,-0.017,109.0,108.0,105.0,13.3,1505.2,327.3,-0.7,1.9,2470.438,13.29,0.025,267.7
2021-03-25T01:19:03,42.805,6.029,-0.038,-0.024,-0.009,108.0,108.0,106.0,13.4,1505.2,327.5,-0.8,1.8,2470.437,13.28,0.044,237.7
2021-03-25T01:22:03,42.805,6.029,-0.029,-0.001,-0.012,109.0,108.0,104.0,13.3,1505.2,327.3,-0.7,1.9,2470.446,13.29,0.029,268.0
2021-03-25T01:25:03,42.805,6.029,-0.02,-0.008,0.007,109.0,108.0,105.0,13.4,1505.2,327.2,-0.8,1.8,2470.457,13.29,0.021,248.2
2021-03-25T01:28:03,42.805,6.029,-0.022,-0.027,-0.028,108.0,109.0,106.0,13.4,1505.2,327.2,-0.8,1.8,2470.424,13.29,0.034,219.2
2021-03-25T01:31:03,42.805,6.029,-0.03,-0.021,-0.008,108.0,108.0,105.0,13.4,1505.2,327.5,-0.7,1.8,2470.472,13.29,0.036,235.0
2021-03-25T01:34:03,42.805,6.029,-0.025,-0.002,-0.009,109.0,111.0,105.0,13.3,1505.2,327.6,-0.8,1.8,2470.414,13.29,0.025,265.4
2021-03-25T01:37:03,42.805,6.029,-0.031,0.002,0.011,109.0,110.0,105.0,13.4,1505.2,327.1,-0.8,1.8,2470.47,13.29,0.031,273.7
2021-03-25T01:40:03,42.805,6.029,-0.017,-0.014,0.008,108.0,109.0,105.0,13.3,1505.2,327.2,-0.8,1.8,2470.473,13.29,0.022,230.5
2021-03-25T01:43:03,42.805,6.029,-0.044,-0.008,-0.001,109.0,113.0,106.0,13.4,1505.2,326.7,-0.8,1.8,2470.43,13.29,0.044,259.7
2021-03-25T01:46:03,42.805,6.029,-0.03,-0.016,-0.01,109.0,108.0,105.0,13.4,1505.2,327.6,-0.7,1.8,2470.445,13.29,0.034,241.9
2021-03-25T01:49:03,42.805,6.029,-0.018,-0.013,-0.003,109.0,108.0,105.0,13.4,1505.2,327.2,-0.8,1.8,2470.494,13.29,0.022,234.2
2021-03-25T01:52:03,42.805,6.029,-0.034,-0.021,0.008,108.0,107.0,106.0,13.3,1505.2,327.1,-0.8,1.8,2470.438,13.29,0.039,238.3
2021-03-25T01:55:03,42.805,6.029,-0.031,-0.013,0.017,109.0,109.0,104.0,13.3,1505.2,327.0,-0.7,1.8,2470.453,13.29,0.033,247.3
2021-03-25T01:58:03,42.805,6.029,-0.04,-0.02,-0.007,108.0,107.0,106.0,13.4,1505.2,327.8,-0.7,1.8,2470.446,13.29,0.044,243.4
2021-03-25T02:04:03,42.805,6.029,-0.029,-0.001,0.0,108.0,108.0,105.0,13.4,1505.2,327.3,-0.8,1.8,2470.466,13.28,0.029,268.0
2021-03-25T02:07:03,42.805,6.029,-0.033,-0.032,0.013,108.0,107.0,104.0,13.3,1505.2,327.1,-0.7,1.8,2470.488,13.28,0.045,225.9
2021-03-25T02:10:03,42.805,6.029,-0.033,0.001,0.007,109.0,108.0,105.0,13.4,1505.2,327.5,-0.8,1.8,2470.434,13.28,0.033,271.7
2021-03-25T02:13:03,42.805,6.029,-0.04,-0.005,0.019,107.0,108.0,105.0,13.4,1505.2,326.8,-0.8,1.8,2470.464,13.28,0.04,262.9
2021-03-25T02:16:03,42.805,6.029,-0.017,-0.003,0.008,109.0,109.0,105.0,13.4,1505.2,327.7,-0.7,1.8,2470.471,13.29,0.017,260.0
2021-03-25T02:19:03,42.805,6.029,-0.051,-0.004,0.002,107.0,108.0,105.0,13.3,1505.2,327.3,-0.8,1.8,2470.423,13.29,0.051,265.5
2021-03-25T02:22:03,42.805,6.029,-0.034,-0.008,0.001,108.0,108.0,105.0,13.3,1505.2,327.7,-0.8,1.8,2470.467,13.29,0.034,256.8
2021-03-25T02:25:03,42.805,6.029,-0.029,0.004,-0.001,108.0,106.0,104.0,13.4,1505.2,327.8,-0.7,1.8,2470.459,13.29,0.029,277.8
2021-03-25T02:28:03,42.805,6.029,-0.02,-0.011,-0.007,109.0,107.0,104.0,13.3,1505.2,327.7,-0.7,1.8,2470.432,13.29,0.022,241.2
2021-03-25T02:31:03,42.805,6.029,-0.021,-0.008,0.032,109.0,108.0,105.0,13.4,1505.2,327.2,-0.7,1.8,2470.445,13.29,0.022,249.1
2021-03-25T02:34:03,42.805,6.029,-0.027,-0.02,-0.018,108.0,107.0,106.0,13.3,1505.2,327.3,-0.7,1.8,2470.501,13.29,0.033,233.5
2021-03-25T02:37:03,42.805,6.029,-0.038,-0.003,0.0,109.0,106.0,106.0,13.4,1505.2,327.6,-0.8,1.9,2470.475,13.29,0.038,265.5
2021-03-25T02:40:03,42.805,6.029,-0.016,-0.015,0.015,106.0,108.0,104.0,13.3,1505.2,327.4,-0.8,1.8,2470.467,13.29,0.021,226.9
2021-03-25T02:43:03,42.805,6.029,-0.011,-0.007,0.014,108.0,107.0,104.0,13.4,1505.2,327.1,-0.7,1.8,2470.45,13.29,0.013,237.5
2021-03-25T02:46:03,42.805,6.029,-0.031,-0.011,-0.029,108.0,109.0,104.0,13.4,1505.2,327.3,-0.7,1.8,2470.534,13.29,0.032,250.5
2021-03-25T02:49:03,42.805,6.029,-0.014,-0.001,0.008,110.0,109.0,106.0,13.4,1505.2,327.2,-0.7,1.8,2470.473,13.29,0.014,265.9
2021-03-25T02:52:03,42.805,6.029,-0.011,-0.014,0.0,110.0,110.0,105.0,13.4,1505.2,327.1,-0.8,1.8,2470.491,13.29,0.017,218.2
2021-03-25T02:55:03,42.805,6.029,-0.016,0.003,-0.031,110.0,109.0,106.0,13.4,1505.2,327.5,-0.8,1.8,2470.496,13.29,0.016,280.6
2021-03-25T02:58:03,42.805,6.029,-0.029,-0.018,0.008,110.0,106.0,106.0,13.4,1505.2,327.1,-0.7,1.8,2470.453,13.29,0.034,238.2
2021-03-25T03:04:03,42.805,6.029,-0.041,0.011,0.01,109.0,107.0,106.0,13.3,1505.2,327.0,-0.8,1.8,2470.508,13.28,0.042,285.0
2021-03-25T03:07:03,42.805,6.029,-0.024,-0.002,-0.007,109.0,109.0,106.0,13.4,1505.2,327.8,-0.7,1.8,2470.508,13.28,0.024,265.2
2021-03-25T03:10:03,42.805,6.029,-0.025,-0.007,-0.021,109.0,109.0,104.0,13.3,1505.2,327.0,-0.8,1.8,2470.499,13.28,0.025,254.4
2021-03-25T03:13:03,42.805,6.029,-0.033,-0.013,0.0,108.0,110.0,104.0,13.4,1505.2,327.7,-0.7,1.8,2470.508,13.28,0.035,248.5
2021-03-25T03:16:03,42.805,6.029,-0.02,0.003,-0.039,110.0,108.0,106.0,13.4,1505.2,327.6,-0.8,1.8,2470.494,13.28,0.02,278.5
2021-03-25T03:19:03,42.805,6.029,-0.027,-0.001,0.01,110.0,109.0,106.0,13.4,1505.2,327.8,-0.7,1.8,2470.457,13.28,0.027,267.9
2021-03-25T03:22:03,42.805,6.029,-0.023,0.005,-0.013,110.0,108.0,106.0,13.3,1505.2,327.5,-0.7,1.8,2470.498,13.29,0.023,282.3
2021-03-25T03:25:03,42.805,6.029,-0.009,-0.015,0.027,107.0,109.0,105.0,13.4,1505.2,327.2,-0.8,1.9,2470.489,13.29,0.017,211.0
2021-03-25T03:28:03,42.805,6.029,-0.016,-0.024,-0.035,109.0,107.0,106.0,13.4,1505.2,327.7,-0.8,1.8,2470.453,13.29,0.028,213.7
2021-03-25T03:31:03,42.805,6.029,-0.023,-0.012,-0.017,109.0,107.0,105.0,13.4,1505.2,327.1,-0.8,1.8,2470.479,13.29,0.025,242.4
2021-03-25T03:34:03,42.805,6.029,-0.041,0.0,0.016,110.0,107.0,105.0,13.4,1505.2,327.1,-0.7,1.8,2470.464,13.29,0.041,270.0
2021-03-25T03:37:03,42.805,6.029,-0.022,0.01,-0.016,109.0,108.0,107.0,13.4,1505.2,327.6,-0.7,1.8,2470.489,13.29,0.024,294.4
2021-03-25T03:40:03,42.805,6.029,-0.024,-0.026,-0.02,108.0,109.0,105.0,13.4,1505.2,327.2,-0.8,1.8,2470.45,13.29,0.035,222.7
2021-03-25T03:43:03,42.805,6.029,-0.016,-0.011,-0.017,109.0,108.0,105.0,13.4,1505.2,327.3,-0.7,1.8,2470.515,13.29,0.019,235.5
2021-03-25T03:46:03,42.805,6.029,-0.061,0.005,0.001,109.0,107.0,106.0,13.3,1505.2,327.2,-0.7,1.8,2470.465,13.29,0.061,274.7
2021-03-25T03:49:03,42.805,6.029,-0.021,-0.006,0.01,109.0,107.0,105.0,13.4,1505.2,327.5,-0.7,1.8,2470.477,13.29,0.021,254.1
2021-03-25T03:52:03,42.805,6.029,-0.018,-0.013,0.006,108.0,107.0,105.0,13.3,1505.2,327.2,-0.8,1.8,2470.477,13.29,0.022,234.2
2021-03-25T03:55:03,42.805,6.029,-0.022,0.002,-0.018,110.0,109.0,105.0,13.4,1505.2,327.2,-0.7,1.8,2470.486,13.29,0.022,275.2
2021-03-25T03:58:03,42.805,6.029,-0.027,0.006,-0.006,108.0,109.0,105.0,13.3,1505.2,326.8,-0.8,1.8,2470.537,13.29,0.027,282.5
2021-03-25T04:04:03,42.805,6.029,-0.027,0.009,0.01,111.0,110.0,105.0,13.3,1505.2,327.6,-0.8,1.8,2470.487,13.28,0.028,288.4
2021-03-25T04:07:03,42.805,6.029,-0.026,-0.01,-0.008,110.0,108.0,104.0,13.4,1505.2,327.6,-0.8,1.8,2470.485,13.28,0.027,249.0
2021-03-25T04:10:03,42.805,6.029,-0.032,0.0,-0.024,111.0,109.0,105.0,13.4,1505.2,327.6,-0.7,1.8,2470.486,13.28,0.032,270.0
2021-03-25T04:13:03,42.805,6.029,-0.034,0.01,-0.017,110.0,110.0,106.0,13.3,1505.2,327.0,-0.7,1.8,2470.499,13.28,0.035,286.4
2021-03-25T04:16:03,42.805,6.029,-0.017,-0.011,-0.001,111.0,110.0,107.0,13.4,1505.2,327.1,-0.8,1.8,2470.467,13.28,0.02,237.1
2021-03-25T04:19:03,42.805,6.029,-0.041,0.009,-0.024,110.0,108.0,106.0,13.4,1505.2,327.5,-0.8,1.8,2470.475,13.28,0.041,282.4
2021-03-25T04:22:03,42.805,6.029,-0.029,-0.016,-0.022,109.0,108.0,106.0,13.4,1505.2,327.0,-0.8,1.8,2470.442,13.28,0.033,241.1
2021-03-25T04:25:03,42.805,6.029,-0.023,-0.021,-0.008,109.0,107.0,105.0,13.3,1505.2,327.4,-0.7,1.8,2470.448,13.28,0.031,227.6
2021-03-25T04:28:03,42.805,6.029,-0.026,0.0,-0.012,108.0,108.0,105.0,13.3,1505.2,327.6,-0.7,1.8,2470.464,13.28,0.026,270.0
2021-03-25T04:31:03,42.805,6.029,-0.008,0.011,-0.019,108.0,109.0,105.0,13.4,1505.2,327.8,-0.7,1.8,2470.47,13.29,0.013,324.0
2021-03-25T04:34:03,42.805,6.029,-0.019,0.007,-0.014,108.0,108.0,105.0,13.4,1505.2,327.5,-0.8,1.9,2470.459,13.29,0.02,290.2
2021-03-25T04:37:03,42.805,6.029,-0.021,-0.002,0.032,109.0,108.0,106.0,13.4,1505.2,327.0,-0.7,1.8,2470.459,13.29,0.021,264.6
2021-03-25T04:40:03,42.805,6.029,-0.033,-0.009,-0.01,108.0,110.0,105.0,13.4,1505.2,327.4,-0.8,1.8,2470.474,13.29,0.034,254.7
2021-03-25T04:43:03,42.805,6.029,-0.028,0.001,-0.006,108.0,109.0,105.0,13.3,1505.2,327.1,-0.7,1.8,2470.441,13.29,0.028,272.0
2021-03-25T04:46:03,42.805,6.029,-0.026,-0.002,-0.031,109.0,106.0,104.0,13.3,1505.2,327.2,-0.7,1.8,2470.488,13.29,0.026,265.6
2021-03-25T04:49:03,42.805,6.029,-0.016,0.003,0.005,108.0,108.0,104.0,13.3,1505.2,327.8,-0.7,1.8,2470.442,13.29,0.016,280.6
2021-03-25T04:52:03,42.805,6.029,-0.021,-0.01,-0.019,111.0,109.0,105.0,13.4,1505.2,327.1,-0.7,1.8,2470.5,13.29,0.023,244.5
2021-03-25T04:55:03,42.805,6.029,-0.023,-0.023,-0.008,110.0,110.0,106.0,13.4,1505.2,327.5,-0.8,1.8,2470.459,13.29,0.032,225.0
2021-03-25T04:58:03,42.805,6.029,-0.038,-0.023,-0.023,110.0,110.0,108.0,13.3,1505.2,327.6,-0.7,1.8,2470.417,13.29,0.044,238.8
2021-03-25T05:04:03,42.805,6.029,-0.033,-0.001,-0.007,109.0,109.0,107.0,13.4,1505.2,327.5,-0.8,1.9,2470.43,13.28,0.033,268.3
2021-03-25T05:07:03,42.805,6.029,-0.031,-0.015,-0.008,110.0,110.0,107.0,13.4,1505.2,327.5,-0.7,1.8,2470.457,13.28,0.034,244.2
2021-03-25T05:10:03,42.805,6.029,-0.028,0.012,-0.012,109.0,109.0,106.0,13.3,1505.2,327.0,-0.7,1.8,2470.443,13.28,0.03,293.2
2021-03-25T05:13:03,42.805,6.029,-0.019,-0.017,0.0,110.0,110.0,106.0,13.4,1505.2,327.1,-0.8,1.9,2470.448,13.28,0.025,228.2
2021-03-25T05:16:03,42.805,6.029,-0.027,-0.017,0.001,111.0,111.0,106.0,13.4,1505.2,327.1,-0.7,1.8,2470.438,13.28,0.031,237.8
2021-03-25T05:19:03,42.805,6.029,-0.02,-0.009,-0.003,110.0,111.0,106.0,13.3,1505.2,327.3,-0.7,1.8,2470.467,13.28,0.021,245.8
2021-03-25T05:22:03,42.805,6.029,-0.021,-0.018,0.007,111.0,109.0,106.0,13.3,1505.2,327.4,-0.8,1.8,2470.416,13.28,0.027,229.4
2021-03-25T05:25:03,42.805,6.029,-0.005,-0.014,-0.039,108.0,111.0,106.0,13.3,1505.2,327.5,-0.7,1.8,2470.415,13.28,0.014,199.6
2021-03-25T05:28:03,42.805,6.029,-0.017,-0.004,-0.013,111.0,110.0,107.0,13.4,1505.2,327.3,-0.7,1.8,2470.461,13.28,0.017,256.8
2021-03-25T05:31:03,42.805,6.029,-0.029,-0.005,0.01,110.0,109.0,106.0,13.3,1505.2,327.3,-0.8,1.8,2470.416,13.28,0.029,260.2
2021-03-25T05:34:03,42.805,6.029,-0.017,-0.013,-0.013,109.0,109.0,106.0,13.4,1505.2,327.3,-0.7,1.8,2470.422,13.28,0.021,232.6
2021-03-25T05:37:03,42.805,6.029,-0.031,0.0,-0.024,109.0,108.0,105.0,13.4,1505.2,327.5,-0.8,1.8,2470.427,13.28,0.03,270.0
2021-03-25T05:40:03,42.805,6.029,-0.041,-0.017,-0.018,108.0,108.0,105.0,13.4,1505.2,327.9,-0.7,1.8,2470.416,13.28,0.044,247.5
2021-03-25T05:43:03,42.805,6.029,-0.03,-0.006,0.015,109.0,108.0,106.0,13.4,1505.2,327.7,-0.8,1.8,2470.436,13.28,0.03,258.7
2021-03-25T05:46:03,42.805,6.029,-0.026,0.0,0.0,111.0,108.0,106.0,13.4,1505.2,327.6,-0.7,1.8,2470.411,13.28,0.026,270.0
2021-03-25T05:49:03,42.805,6.029,-0.032,-0.004,0.015,111.0,109.0,106.0,13.3,1505.2,327.1,-0.7,1.8,2470.421,13.28,0.032,262.9
2021-03-25T05:52:03,42.805,6.029,-0.016,-0.024,-0.011,110.0,109.0,106.0,13.4,1505.2,327.2,-0.7,1.8,2470.429,13.28,0.028,213.7
2021-03-25T05:55:03,42.805,6.029,-0.011,-0.013,-0.004,112.0,110.0,106.0,13.4,1505.2,327.4,-0.8,1.8,2470.431,13.28,0.017,220.2
2021-03-25T05:58:03,42.805,6.029,-0.049,-0.012,-0.033,110.0,108.0,106.0,13.3,1505.2,327.4,-0.8,1.8,2470.461,13.28,0.05,256.2
2021-03-25T06:04:03,42.805,6.029,-0.046,-0.02,-0.008,109.0,108.0,106.0,13.4,1505.2,327.5,-0.8,1.8,2470.449,13.28,0.05,246.5
2021-03-25T06:07:03,42.805,6.029,-0.026,-0.005,0.029,108.0,107.0,105.0,13.3,1505.2,327.6,-0.7,1.8,2470.462,13.28,0.026,259.1
2021-03-25T06:10:03,42.805,6.029,-0.027,-0.007,-0.019,110.0,108.0,105.0,13.4,1505.2,327.4,-0.7,1.8,2470.431,13.28,0.027,255.5
2021-03-25T06:13:03,42.805,6.029,-0.035,-0.009,0.006,110.0,110.0,106.0,13.4,1505.2,327.8,-0.8,1.8,2470.456,13.28,0.036,255.6
2021-03-25T06:16:03,42.805,6.029,-0.033,-0.004,-0.008,109.0,109.0,106.0,13.3,1505.2,326.8,-0.8,1.8,2470.435,13.28,0.033,263.1
2021-03-25T06:19:03,42.805,6.029,-0.031,-0.003,0.007,109.0,107.0,106.0,13.4,1505.2,327.5,-0.7,1.8,2470.44,13.28,0.031,264.5
2021-03-25T06:22:03,42.805,6.029,-0.023,-0.026,-0.035,109.0,108.0,105.0,13.4,1505.2,327.1,-0.8,1.8,2470.414,13.28,0.034,221.5
2021-03-25T06:25:03,42.805,6.029,-0.029,-0.004,0.0,109.0,109.0,105.0,13.4,1505.2,327.3,-0.7,1.8,2470.41,13.28,0.029,262.2
2021-03-25T06:28:03,42.805,6.029,-0.031,0.0,-0.002,109.0,110.0,106.0,13.4,1505.2,327.6,-0.8,1.8,2470.429,13.28,0.03,270.0
2021-03-25T06:31:03,42.805,6.029,-0.006,-0.017,-0.004,107.0,107.0,105.0,13.4,1505.2,327.5,-0.7,1.8,2470.391,13.28,0.018,199.4
2021-03-25T06:34:03,42.805,6.029,-0.04,-0.031,0.005,108.0,109.0,105.0,13.4,1505.2,327.2,-0.7,1.8,2470.413,13.28,0.05,232.2
2021-03-25T06:37:03,42.805,6.029,-0.032,-0.01,-0.003,110.0,108.0,105.0,13.3,1505.2,327.7,-0.8,1.8,2470.382,13.28,0.033,252.6
2021-03-25T06:40:03,42.805,6.029,-0.008,-0.033,-0.004,109.0,108.0,106.0,13.4,1505.2,327.0,-0.8,1.8,2470.415,13.28,0.033,193.6
2021-03-25T06:43:03,42.805,6.029,-0.028,-0.032,0.002,110.0,110.0,106.0,13.4,1505.2,327.6,-0.7,1.8,2470.421,13.28,0.042,221.2
2021-03-25T06:46:03,42.805,6.029,-0.018,-0.025,0.019,109.0,109.0,106.0,13.4,1505.2,327.6,-0.7,1.8,2470.384,13.28,0.03,215.8
2021-03-25T06:49:03,42.805,6.029,-0.04,0.022,0.0,109.0,107.0,106.0,13.3,1505.2,327.2,-0.7,1.8,2470.433,13.28,0.045,298.8
2021-03-25T06:52:03,42.805,6.029,-0.025,-0.03,0.001,108.0,108.0,105.0,13.4,1505.2,327.4,-0.7,1.8,2470.384,13.28,0.039,219.8
2021-03-25T06:55:03,42.805,6.029,-0.015,-0.024,-0.036,109.0,106.0,107.0,13.4,1505.2,327.1,-0.8,1.8,2470.417,13.28,0.028,212.0
2021-03-25T06:58:03,42.805,6.029,-0.015,-0.018,0.013,108.0,109.0,105.0,13.3,1505.2,327.5,-0.8,1.8,2470.427,13.28,0.023,219.8
2021-03-25T07:04:03,42.805,6.029,-0.022,-0.026,-0.001,109.0,108.0,105.0,13.4,1505.2,327.3,-0.8,1.8,2470.406,13.28,0.034,220.2
2021-03-25T07:07:03,42.805,6.029,-0.044,-0.025,0.006,108.0,109.0,104.0,13.4,1505.2,327.5,-0.8,1.8,2470.407,13.28,0.05,240.4
2021-03-25T07:10:03,42.805,6.029,-0.032,-0.017,0.002,109.0,108.0,105.0,13.4,1505.2,327.6,-0.7,1.8,2470.378,13.28,0.036,242.0
2021-03-25T07:13:03,42.805,6.029,-0.042,-0.019,-0.005,110.0,110.0,106.0,13.3,1505.2,326.9,-0.8,1.8,2470.396,13.28,0.046,245.7
2021-03-25T07:16:03,42.805,6.029,-0.001,-0.007,0.016,108.0,109.0,106.0,13.3,1505.2,327.5,-0.8,1.8,2470.439,13.28,0.007,188.1
2021-03-25T07:19:03,42.805,6.029,-0.043,0.001,0.003,109.0,108.0,106.0,13.3,1505.2,327.3,-0.8,1.8,2470.383,13.28,0.043,271.3
2021-03-25T07:22:03,42.805,6.029,-0.049,-0.011,-0.001,110.0,108.0,106.0,13.4,1505.2,327.3,-0.8,1.8,2470.426,13.28,0.05,257.3
2021-03-25T07:25:03,42.805,6.029,-0.029,-0.012,-0.008,110.0,108.0,106.0,13.4,1505.2,327.2,-0.8,1.8,2470.408,13.28,0.031,247.5
2021-03-25T07:28:03,42.805,6.029,-0.035,0.005,0.011,109.0,108.0,106.0,13.4,1505.2,327.3,-0.8,1.9,2470.409,13.28,0.035,278.1
2021-03-25T07:31:03,42.805,6.029,-0.014,-0.021,0.031,110.0,109.0,106.0,13.4,1505.2,327.0,-0.8,1.8,2470.398,13.28,0.025,213.7
2021-03-25T07:34:03,42.805,6.029,-0.034,-0.014,0.012,109.0,108.0,106.0,13.3,1505.2,327.3,-0.7,1.8,2470.379,13.28,0.036,247.6
2021-03-25T07:37:03,42.805,6.029,-0.019,0.007,0.016,110.0,112.0,106.0,13.4,1505.2,327.3,-0.7,1.8,2470.391,13.28,0.02,290.2
2021-03-25T07:40:03,42.805,6.029,-0.033,-0.035,-0.016,109.0,108.0,105.0,13.4,1505.2,327.1,-0.7,1.9,2470.413,13.28,0.048,223.3
2021-03-25T07:43:03,42.805,6.029,-0.024,-0.017,-0.003,108.0,108.0,106.0,13.3,1505.2,327.5,-0.7,1.8,2470.395,13.28,0.029,234.7
2021-03-25T07:46:03,42.805,6.029,-0.047,-0.009,0.008,109.0,108.0,105.0,13.4,1505.2,327.2,-0.7,1.8,2470.446,13.28,0.047,259.2
2021-03-25T07:49:03,42.805,6.029,-0.024,-0.018,0.004,109.0,110.0,105.0,13.3,1505.2,327.2,-0.7,1.8,2470.402,13.28,0.03,233.1
2021-03-25T07:52:03,42.805,6.029,-0.043,-0.018,0.025,109.0,108.0,105.0,13.4,1505.2,327.6,-0.8,1.8,2470.444,13.28,0.046,247.3
2021-03-25T07:55:03,42.805,6.029,-0.038,-0.019,-0.028,109.0,109.0,105.0,13.4,1505.2,327.5,-0.8,1.8,2470.441,13.28,0.042,243.4
2021-03-25T07:58:03,42.805,6.029,-0.052,-0.013,-0.026,109.0,108.0,106.0,13.3,1505.2,327.6,-0.8,1.8,2470.415,13.28,0.053,256.0
2021-03-25T08:04:03,42.805,6.029,-0.037,-0.032,-0.015,109.0,108.0,106.0,13.4,1505.2,327.6,-0.7,1.8,2470.47,13.28,0.048,229.1
2021-03-25T08:07:03,42.805,6.029,-0.035,-0.01,-0.018,109.0,108.0,107.0,13.3,1505.2,327.6,-0.7,1.8,2470.458,13.28,0.036,254.1
2021-03-25T08:10:03,42.805,6.029,-0.04,-0.009,0.008,109.0,110.0,106.0,13.4,1505.2,327.3,-0.8,1.8,2470.411,13.28,0.041,257.3
2021-03-25T08:13:03,42.805,6.029,-0.045,-0.011,-0.026,110.0,108.0,106.0,13.4,1505.2,326.7,-0.8,1.8,2470.429,13.28,0.046,256.3
2021-03-25T08:16:03,42.805,6.029,-0.039,-0.009,0.0,108.0,109.0,106.0,13.4,1505.2,327.3,-0.7,1.8,2470.456,13.28,0.04,257.0
2021-03-25T08:19:03,42.805,6.029,-0.027,-0.003,-0.002,110.0,109.0,106.0,13.4,1505.2,327.1,-0.8,1.8,2470.475,13.28,0.027,263.7
2021-03-25T08:22:03,42.805,6.029,-0.041,-0.019,-0.02,110.0,108.0,106.0,13.3,1505.2,327.5,-0.8,1.8,2470.415,13.28,0.045,245.1
2021-03-25T08:25:03,42.805,6.029,-0.037,-0.015,-0.02,110.0,109.0,105.0,13.4,1505.2,327.5,-0.8,1.9,2470.437,13.28,0.039,247.9
2021-03-25T08:28:03,42.805,6.029,-0.029,-0.001,0.001,109.0,108.0,106.0,13.4,1505.2,327.6,-0.8,1.8,2470.456,13.28,0.029,268.0
2021-03-25T08:31:03,42.805,6.029,-0.035,-0.015,-0.004,109.0,109.0,105.0,13.3,1505.2,327.2,-0.8,1.8,2470.39,13.28,0.038,246.8
2021-03-25T08:34:03,42.805,6.029,-0.035,-0.001,0.017,109.0,109.0,106.0,13.4,1505.2,327.0,-0.8,1.8,2470.417,13.28,0.035,268.4
2021-03-25T08:37:03,42.805,6.029,-0.044,-0.016,0.008,110.0,108.0,107.0,13.4,1505.2,327.3,-0.8,1.9,2470.444,13.28,0.046,250.0
2021-03-25T08:40:03,42.805,6.029,-0.042,-0.013,-0.025,109.0,109.0,105.0,13.3,1505.2,327.4,-0.8,1.8,2470.398,13.28,0.043,252.8
2021-03-25T08:43:03,42.805,6.029,-0.042,-0.013,0.0,108.0,107.0,105.0,13.4,1505.2,327.5,-0.7,1.8,2470.423,13.28,0.043,252.8
2021-03-25T08:46:03,42.805,6.029,-0.045,-0.023,-0.001,109.0,108.0,105.0,13.4,1505.2,327.0,-0.8,1.8,2470.424,13.28,0.05,242.9
2021-03-25T08:49:03,42.805,6.029,-0.022,-0.003,-0.008,109.0,109.0,105.0,13.4,1505.2,327.1,-0.7,1.8,2470.394,13.28,0.022,262.2
2021-03-25T08:52:03,42.805,6.029,-0.028,0.013,0.003,109.0,107.0,106.0,13.4,1505.2,327.0,-0.8,1.8,2470.413,13.28,0.03,294.9
2021-03-25T08:55:03,42.805,6.029,-0.031,-0.005,-0.006,110.0,109.0,105.0,13.3,1505.2,327.1,-0.8,1.8,2470.397,13.28,0.031,260.8
2021-03-25T08:58:03,42.805,6.029,-0.039,0.005,-0.013,108.0,109.0,107.0,13.4,1505.2,327.1,-0.8,1.8,2470.421,13.28,0.039,277.3
2021-03-25T09:04:03,42.805,6.029,-0.026,-0.025,-0.003,109.0,108.0,107.0,13.4,1505.2,327.1,-0.8,1.8,2470.407,13.28,0.036,226.1
2021-03-25T09:07:03,42.805,6.029,-0.042,-0.002,-0.016,109.0,109.0,106.0,13.4,1505.2,327.1,-0.7,1.9,2470.399,13.28,0.042,267.3
2021-03-25T09:10:03,42.805,6.029,-0.037,-0.012,-0.003,109.0,108.0,106.0,13.4,1505.2,327.0,-0.8,1.8,2470.372,13.28,0.038,252.0
2021-03-25T09:13:03,42.805,6.029,-0.037,-0.015,0.003,110.0,107.0,105.0,13.4,1505.2,327.1,-0.8,1.8,2470.356,13.28,0.039,247.9
2021-03-25T09:16:03,42.805,6.029,-0.036,0.005,-0.024,109.0,108.0,106.0,13.4,1505.2,327.4,-0.8,1.8,2470.351,13.28,0.036,277.9
2021-03-25T09:19:03,42.805,6.029,-0.029,0.004,-0.002,109.0,108.0,107.0,13.4,1505.2,327.0,-0.8,1.8,2470.339,13.28,0.029,277.8
2021-03-25T09:22:03,42.805,6.029,-0.033,-0.026,-0.02,108.0,107.0,105.0,13.3,1505.2,327.3,-0.7,1.9,2470.366,13.28,0.042,231.8
2021-03-25T09:25:03,42.805,6.029,-0.023,0.03,-0.026,109.0,108.0,103.0,13.3,1505.2,327.6,-0.8,1.9,2470.353,13.28,0.037,322.5
2021-03-25T09:28:03,42.805,6.029,-0.019,-0.004,-0.005,110.0,108.0,105.0,13.3,1505.2,326.9,-0.8,1.8,2470.301,13.28,0.019,258.1
2021-03-25T09:31:03,42.805,6.029,-0.042,0.021,-0.004,108.0,109.0,105.0,13.4,1505.2,327.0,-0.7,1.8,2470.318,13.28,0.046,296.6
2021-03-25T09:34:03,42.805,6.029,-0.04,-0.005,0.006,110.0,108.0,105.0,13.4,1505.2,327.4,-0.8,1.8,2470.29,13.29,0.04,262.9
2021-03-25T09:37:03,42.805,6.029,-0.02,-0.005,0.003,109.0,110.0,104.0,13.4,1505.2,327.0,-0.8,1.8,2470.264,13.29,0.02,256.0
2021-03-25T09:40:03,42.805,6.029,-0.025,-0.003,-0.01,111.0,109.0,105.0,13.4,1505.2,327.5,-0.7,1.8,2470.297,13.28,0.025,263.2
2021-03-25T09:43:03,42.805,6.029,-0.037,0.0,0.007,110.0,109.0,104.0,13.4,1505.2,327.1,-0.8,1.9,2470.277,13.28,0.037,270.0
2021-03-25T09:46:03,42.805,6.029,-0.017,0.002,0.001,108.0,108.0,105.0,13.3,1505.2,327.4,-0.7,1.8,2470.304,13.28,0.017,276.7
2021-03-25T09:49:03,42.805,6.029,-0.025,0.006,0.005,110.0,109.0,106.0,13.4,1505.2,327.5,-0.7,1.8,2470.26,13.28,0.025,283.5
2021-03-25T09:52:03,42.805,6.029,-0.013,-0.004,0.008,109.0,109.0,106.0,13.4,1505.2,327.8,-0.7,1.8,2470.294,13.28,0.013,252.9